Location: Rounton
(54.4000°N, 1.3500°W)
Time: 05:26:13
(UTC+01:00)

Tiros 1 despin weight - Pass Details

Date: 07 March 2024
Orbit: 579 x 623 km, 48.2° (Epoch: 16 April)

Event Time Altitude Azimuth Distance (km) Brightness Sun altitude
Rises 05:56:43 0° 207° (SSW) 2,835 ? -7.0°
Reaches altitude 10° 05:59:46 10° 185° (S) 1,926 ? -6.5°
Maximum altitude 06:02:24 16° 148° (SSE) 1,586 ? -6.2°
Drops below altitude 10° 06:05:00 10° 111° (ESE) 1,915 ? -5.8°
Sets 06:08:02 0° 89° (E) 2,810 ? -5.3°
